Minot, ND

1:07 PM CDT on June 26, 2017 (GMT -0500)
Minot International

Weather History for KMOT - December, 2013

Change the Weather History Date:

Tuesday, December 3, 2013

  Actual Average Record
Temperature  
Mean Temperature 12 °F 19 °F  
Max Temperature 18 °F 27 °F 59 °F (1941)
Min Temperature 6 °F 11 °F -26 °F (1905)
Degree Days  
Heating Degree Days 53 46  
Month to date heating degree days 142 136  
Since 1 July heating degree days 2197 2194  
Moisture  
Dew Point 3 °F    
Average Humidity 82    
Maximum Humidity 88    
Minimum Humidity 76    
Precipitation  
Precipitation T in 0.01 in 0.80 in (2004)
Month to date precipitation 0.11 0.04  
Year to date precipitation 24.92 16.85  
Sea Level Pressure  
Sea Level Pressure 30.04 in    
Wind  
Wind Speed 17 mph (NNW)    
Max Wind Speed 24 mph    
Max Gust Speed 29 mph    
Visibility 6 miles    
Events Snow    
T = Trace of Precipitation, MM = Missing Value Source: NWS Daily Summary

Daily Weather History Graph

Daily Weather History Graph

Search for Another Location

Airport or City:

Trip Planner

Search our weather history database for the weather conditions in past years. The results will help you decide how hot, cold, wet, or windy it might be!

Date:

Astronomy

Dec. 03, 2013 Rise Set
Actual Time 8:17 AM CST 4:52 PM CST
Civil Twilight 7:41 AM CST 5:28 PM CST
Nautical Twilight 7:02 AM CST 6:07 PM CST
Astronomical Twilight 6:24 AM CST 6:45 PM CST
Moon 8:47 AM CST (12/3) 5:59 PM CST (12/3)
Length of Visible Light 9h 46m
Length of Day
8h 34m
New Moon, 1% of the Moon is Illuminated
Dec 3
New Moon
Dec 9
First Quarter
Dec 17
Full
Dec 25
Last Quarter
Jan 1
New

Hourly Weather History & Observations

Time (CST) Temp. Windchill Dew Point Humidity Pressure Visibility Wind Dir Wind Speed Gust Speed Precip Events Conditions
12:20 AM 18.0 °F 5.4 °F 14.0 °F 84% 29.87 in 10.0 mi North 11.5 mph - N/A   Overcast
12:54 AM 16.0 °F 0.1 °F 12.0 °F 84% 29.96 in 10.0 mi North 17.3 mph - N/A   Overcast
1:08 AM 16.0 °F -0.4 °F 10.9 °F 81% 29.86 in 10.0 mi North 18.4 mph - N/A   Overcast
1:39 AM 14.0 °F -2.0 °F 10.0 °F 84% 29.88 in 10.0 mi North 16.1 mph - N/A   Overcast
1:54 AM 14.0 °F -2.5 °F 10.0 °F 84% 29.98 in 10.0 mi North 17.3 mph - N/A   Overcast
2:54 AM 12.9 °F -3.9 °F 9.0 °F 84% 30.01 in 8.0 mi North 17.3 mph - N/A   Overcast
3:54 AM 12.0 °F -4.5 °F 7.0 °F 80% 30.03 in 9.0 mi North 16.1 mph - N/A   Overcast
4:54 AM 10.0 °F -8.1 °F 5.0 °F 80% 30.03 in 5.0 mi North 18.4 mph - 0.00 in   Haze
5:28 AM 9.0 °F -9.5 °F 5.0 °F 84% 29.94 in 5.0 mi North 18.4 mph - N/A   Overcast
5:54 AM 8.1 °F -11.2 °F 3.9 °F 83% 30.06 in 5.0 mi North 19.6 mph - N/A   Overcast
6:05 AM 8.1 °F -10.7 °F 3.0 °F 80% 29.95 in 5.0 mi North 18.4 mph - N/A   Haze
6:54 AM 9.0 °F -9.5 °F 3.9 °F 80% 30.06 in 8.0 mi North 18.4 mph - N/A   Overcast
7:54 AM 8.1 °F -11.7 °F 3.0 °F 80% 30.06 in 9.0 mi North 20.7 mph 26.5 mph 0.00 in   Overcast
8:52 AM 8.6 °F -11.4 °F 3.2 °F 79% 29.98 in 2.5 mi North 21.9 mph 27.6 mph 0.00 in Snow Light Snow
8:54 AM 8.1 °F -11.7 °F 3.0 °F 80% 30.09 in 2.5 mi North 20.7 mph 27.6 mph 0.00 in Snow Light Snow
9:02 AM 8.1 °F -11.2 °F 3.0 °F 80% 29.97 in 3.0 mi North 19.6 mph 27.6 mph 0.00 in Snow Light Snow
9:38 AM 8.1 °F -10.2 °F 3.0 °F 80% 29.98 in 3.0 mi North 17.3 mph - 0.00 in Snow Light Snow
9:54 AM 8.1 °F -11.2 °F 3.0 °F 80% 30.10 in 3.0 mi North 19.6 mph 27.6 mph 0.00 in Snow Light Snow
10:20 AM 8.1 °F -11.2 °F 3.0 °F 80% 29.99 in 3.0 mi North 19.6 mph - 0.00 in Snow Light Snow
10:54 AM 9.0 °F -10.0 °F 3.0 °F 77% 30.10 in 5.0 mi North 19.6 mph - 0.00 in   Haze
11:54 AM 9.0 °F -8.5 °F 3.0 °F 77% 30.11 in 4.0 mi North 16.1 mph 21.9 mph 0.00 in Snow Light Snow
12:32 PM 10.0 °F -5.9 °F 3.9 °F 76% 30.00 in 2.0 mi North 13.8 mph - 0.00 in Snow Light Snow
12:54 PM 9.0 °F -6.6 °F 3.0 °F 77% 30.13 in 2.0 mi NNW 12.7 mph - 0.00 in Snow Light Snow
1:05 PM 8.1 °F -8.4 °F 3.0 °F 80% 30.02 in 1.5 mi NW 13.8 mph - 0.00 in Snow Light Snow
1:15 PM 8.1 °F -9.0 °F 1.9 °F 76% 30.01 in 3.0 mi NW 15.0 mph - 0.00 in Snow Light Snow
1:54 PM 7.0 °F -11.6 °F 1.0 °F 77% 30.14 in 6.0 mi NW 17.3 mph - 0.00 in   Haze
2:43 PM 7.0 °F -13.1 °F 1.0 °F 77% 30.00 in 7.0 mi NNW 20.7 mph - 0.00 in   Overcast
2:54 PM 7.0 °F -10.4 °F 1.0 °F 77% 30.12 in 5.0 mi NNW 15.0 mph 26.5 mph 0.00 in Snow Light Snow
3:22 PM 7.0 °F -13.1 °F 1.0 °F 77% 29.99 in 2.0 mi NNW 20.7 mph - 0.00 in Snow Light Snow
3:54 PM 7.0 °F -11.0 °F 1.0 °F 77% 30.12 in 2.0 mi NNW 16.1 mph - 0.00 in Snow Light Snow
4:01 PM 7.0 °F -11.0 °F 1.0 °F 77% 30.01 in 4.0 mi NNW 16.1 mph - 0.00 in Snow Light Snow
4:10 PM 7.0 °F -9.1 °F 1.0 °F 77% 30.01 in 4.0 mi NNW 12.7 mph - 0.00 in Snow Light Snow
4:49 PM 6.8 °F -11.3 °F 1.4 °F 79% 30.01 in 4.0 mi NNW 16.1 mph - 0.00 in Snow Light Snow
4:54 PM 7.0 °F -11.0 °F 1.0 °F 77% 30.13 in 5.0 mi NNW 16.1 mph - 0.00 in Snow Light Snow
5:15 PM 7.0 °F -11.6 °F 1.0 °F 77% 30.02 in 6.0 mi NNW 17.3 mph - 0.00 in Snow Light Snow
5:54 PM 7.0 °F -12.6 °F 1.0 °F 77% 30.14 in 10.0 mi NNW 19.6 mph - 0.00 in   Overcast
6:54 PM 7.0 °F -10.4 °F 1.0 °F 77% 30.17 in 10.0 mi NNW 15.0 mph - N/A   Overcast
7:02 PM 7.0 °F -10.4 °F 1.0 °F 77% 30.04 in 10.0 mi NNW 15.0 mph - N/A   Overcast
7:21 PM 7.0 °F -10.4 °F 1.0 °F 77% 30.03 in 10.0 mi NNW 15.0 mph - N/A   Overcast
7:49 PM 6.8 °F -11.3 °F 1.4 °F 79% 30.04 in 10.0 mi NNW 16.1 mph 23.0 mph 0.00 in   Overcast
7:54 PM 7.0 °F -9.8 °F 1.0 °F 77% 30.16 in 10.0 mi NNW 13.8 mph - 0.00 in   Overcast
8:30 PM 7.0 °F -9.8 °F 1.9 °F 80% 30.02 in 10.0 mi NNW 13.8 mph - N/A   Overcast
8:54 PM 7.0 °F -12.1 °F 1.9 °F 80% 30.14 in 10.0 mi NNW 18.4 mph - N/A   Overcast
9:54 PM 7.0 °F -11.0 °F 1.9 °F 80% 30.15 in 8.0 mi NNW 16.1 mph - 0.00 in Snow Light Snow
10:10 PM 7.0 °F -12.1 °F 1.9 °F 80% 30.02 in 5.0 mi NNW 18.4 mph 25.3 mph 0.00 in Snow Light Snow
10:32 PM 7.0 °F -13.1 °F 1.9 °F 80% 30.02 in 4.0 mi NNW 20.7 mph - 0.00 in Snow Light Snow
10:49 PM 6.8 °F -11.8 °F 1.4 °F 79% 30.03 in 2.0 mi NNW 17.3 mph - 0.00 in Snow Light Snow
10:54 PM 7.0 °F -11.0 °F 1.9 °F 80% 30.16 in 1.8 mi NNW 16.1 mph 21.9 mph 0.00 in Snow Light Snow
11:14 PM 7.0 °F -11.0 °F 1.9 °F 80% 30.03 in 1.5 mi NNW 16.1 mph - 0.00 in Snow Light Snow
11:49 PM 6.8 °F -12.4 °F 1.4 °F 79% 30.05 in 0.8 mi NNW 18.4 mph - 0.00 in Snow Light Snow
11:54 PM 6.1 °F -12.2 °F 1.0 °F 80% 30.17 in 0.8 mi NNW 16.1 mph - 0.00 in Snow Light Snow